Weather History for KAVK - August, 2014

Change the Weather History Date:

Saturday, August 16, 2014

  Actual Average Record
Temperature  
Mean Temperature 83 °F -  
Max Temperature 98 °F 96 °F 113 °F (1952)
Min Temperature 68 °F 68 °F 59 °F (1992)
Cooling Degree Days 18    
Growing Degree Days 33 (Base 50)    
Moisture  
Dew Point 66 °F    
Average Humidity 59    
Maximum Humidity 94    
Minimum Humidity 30    
Precipitation  
Precipitation 0.00 in - - ()
Sea Level Pressure  
Sea Level Pressure 29.88 in    
Wind  
Wind Speed 7 mph (WSW)    
Max Wind Speed 10 mph    
Max Gust Speed -    
Visibility 10 miles    
Events      
Averages and records for this station are not official NWS values.
T = Trace of Precipitation, MM = Missing Value Source: NWS Daily Summary

Daily Weather History Graph

Daily Weather History Graph

Search for Another Location

Airport or City:

Trip Planner

Search our weather history database for the weather conditions in past years. The results will help you decide how hot, cold, wet, or windy it might be!

Date:

Astronomy

Aug. 16, 2014 Rise Set
Actual Time 6:52 AM CDT 8:24 PM CDT
Civil Twilight 6:25 AM CDT 8:51 PM CDT
Nautical Twilight 5:52 AM CDT 9:24 PM CDT
Astronomical Twilight 5:17 AM CDT 9:59 PM CDT
Moon No Moon Rise 1:29 PM CDT (8/16)
Length of Visible Light 14h 26m
Length of Day
13h 31m
Waning Gibbous, 58% of the Moon is Illuminated
Aug 16
Waning Gibbous
Aug 17
Last Quarter
Aug 25
New
Sep 2
First Quarter
Sep 8
Full

Hourly Weather History & Observations

Time (CDT) Temp. Heat Index Dew Point Humidity Pressure Visibility Wind Dir Wind Speed Gust Speed Precip Events Conditions
12:10 AM 73.4 °F - 68.0 °F 83% 29.88 in 10.0 mi South 9.2 mph - N/A   Clear
12:30 AM 71.6 °F - 68.0 °F 88% 29.88 in 10.0 mi WSW 8.1 mph - N/A   Partly Cloudy
12:50 AM 73.4 °F - 68.0 °F 83% 29.88 in 10.0 mi SW 5.8 mph - N/A   Mostly Cloudy
1:10 AM 73.4 °F - 68.0 °F 83% 29.88 in 10.0 mi SW 8.1 mph - N/A   Overcast
1:30 AM 73.4 °F - 68.0 °F 83% 29.88 in 10.0 mi SW 8.1 mph - N/A   Overcast
1:50 AM 75.2 °F - 68.0 °F 78% 29.88 in 10.0 mi SW 9.2 mph - N/A   Overcast
2:10 AM 75.2 °F - 68.0 °F 78% 29.88 in 10.0 mi WSW 10.4 mph - N/A   Overcast
2:30 AM 75.2 °F - 66.2 °F 73% 29.88 in 10.0 mi SW 9.2 mph - N/A   Mostly Cloudy
2:50 AM 73.4 °F - 66.2 °F 78% 29.88 in 10.0 mi WSW 8.1 mph - N/A   Mostly Cloudy
3:10 AM 71.6 °F - 68.0 °F 88% 29.87 in 10.0 mi SW 5.8 mph - N/A   Scattered Clouds
3:30 AM 71.6 °F - 68.0 °F 88% 29.87 in 10.0 mi WSW 8.1 mph - N/A   Mostly Cloudy
3:50 AM 71.6 °F - 68.0 °F 88% 29.87 in 10.0 mi WSW 8.1 mph - N/A   Scattered Clouds
4:10 AM 71.6 °F - 66.2 °F 83% 29.86 in 10.0 mi WSW 6.9 mph - N/A   Clear
4:30 AM 71.6 °F - 66.2 °F 83% 29.87 in 10.0 mi WSW 6.9 mph - N/A   Clear
4:55 AM 69.8 °F - 66.2 °F 88% 29.87 in 10.0 mi WSW 5.8 mph - N/A   Partly Cloudy
5:15 AM 69.8 °F - 66.2 °F 88% 29.87 in 10.0 mi SW 8.1 mph - N/A   Clear
5:35 AM 69.8 °F - 66.2 °F 88% 29.88 in 10.0 mi WSW 5.8 mph - N/A   Clear
5:50 AM 68.0 °F - 66.2 °F 94% 29.88 in 10.0 mi WSW 8.1 mph - N/A   Clear
6:10 AM 68.0 °F - 66.2 °F 94% 29.88 in 10.0 mi SW 4.6 mph - N/A   Clear
6:30 AM 68.0 °F - 66.2 °F 94% 29.87 in 10.0 mi SSW 6.9 mph - N/A   Clear
6:50 AM 68.0 °F - 66.2 °F 94% 29.88 in 10.0 mi South 5.8 mph - N/A   Clear
7:10 AM 68.0 °F - 66.2 °F 94% 29.88 in 10.0 mi South 8.1 mph - N/A   Clear
7:30 AM 68.0 °F - 66.2 °F 94% 29.88 in 10.0 mi SSW 5.8 mph - N/A   Clear
7:50 AM 71.6 °F - 68.0 °F 88% 29.89 in 10.0 mi SSW 4.6 mph - N/A   Clear
8:15 AM 73.4 °F - 68.0 °F 83% 29.89 in 10.0 mi SSW 5.8 mph - N/A   Clear
8:35 AM 75.2 °F - 66.2 °F 73% 29.89 in 10.0 mi SSW 8.1 mph - N/A   Clear
8:50 AM 75.2 °F - 66.2 °F 73% 29.89 in 10.0 mi SW 8.1 mph - N/A   Clear
9:15 AM 77.0 °F - 68.0 °F 74% 29.90 in 10.0 mi WSW 6.9 mph - N/A   Clear
9:30 AM 78.8 °F - 68.0 °F 69% 29.90 in 10.0 mi West 6.9 mph - N/A   Clear
9:50 AM 80.6 °F 82.7 °F 66.2 °F 61% 29.90 in 10.0 mi West 8.1 mph - N/A   Clear
10:10 AM 82.4 °F 84.6 °F 66.2 °F 58% 29.90 in 10.0 mi WNW 6.9 mph - N/A   Clear
10:30 AM 84.2 °F 85.6 °F 64.4 °F 51% 29.90 in 10.0 mi West 6.9 mph - N/A   Clear
10:55 AM 84.2 °F 85.6 °F 64.4 °F 51% 29.90 in 10.0 mi WNW 6.9 mph - N/A   Clear
11:10 AM 86.0 °F 87.3 °F 64.4 °F 48% 29.90 in 10.0 mi WNW 4.6 mph - N/A   Clear
11:30 AM 87.8 °F 89.4 °F 64.4 °F 46% 29.90 in 10.0 mi NW 4.6 mph - N/A   Clear
11:50 AM 89.6 °F 91.1 °F 64.4 °F 43% 29.90 in 10.0 mi West 5.8 mph - N/A   Clear
12:10 PM 89.6 °F 91.1 °F 64.4 °F 43% 29.90 in 10.0 mi WSW 3.5 mph - N/A   Clear
12:35 PM 91.4 °F 93.2 °F 64.4 °F 41% 29.90 in 10.0 mi NW 5.8 mph - N/A   Clear
12:50 PM 91.4 °F 93.2 °F 64.4 °F 41% 29.90 in 10.0 mi Calm Calm - N/A   Clear
1:10 PM 91.4 °F 94.0 °F 66.2 °F 43% 29.90 in 10.0 mi West 6.9 mph - N/A   Clear
1:30 PM 93.2 °F 94.9 °F 64.4 °F 38% 29.90 in 10.0 mi NNW 8.1 mph - N/A   Clear
1:50 PM 93.2 °F 96.2 °F 66.2 °F 41% 29.90 in 10.0 mi Calm Calm - N/A   Clear
2:10 PM 95.0 °F 98.5 °F 66.2 °F 39% 29.89 in 10.0 mi North 5.8 mph - N/A   Clear
2:30 PM 95.0 °F 98.5 °F 66.2 °F 39% 29.89 in 10.0 mi North 4.6 mph - N/A   Clear
2:50 PM 96.8 °F 100.7 °F 66.2 °F 37% 29.89 in 10.0 mi North 6.9 mph - N/A   Clear
3:10 PM 95.0 °F 97.0 °F 64.4 °F 36% 29.88 in 10.0 mi ESE 3.5 mph - N/A   Clear
3:30 PM 98.6 °F 101.0 °F 64.4 °F 32% 29.88 in 10.0 mi Calm Calm - N/A   Clear
3:50 PM 98.6 °F 102.8 °F 66.2 °F 35% 29.87 in 10.0 mi North 6.9 mph - N/A   Clear
4:10 PM 98.6 °F 101.0 °F 64.4 °F 32% 29.87 in 10.0 mi Calm Calm - N/A   Clear
4:30 PM 95.0 °F 96.0 °F 62.6 °F 34% 29.86 in 10.0 mi NNE 8.1 mph - N/A   Partly Cloudy
4:55 PM 98.6 °F 100.0 °F 62.6 °F 30% 29.85 in 10.0 mi NE 3.5 mph - N/A   Clear
5:15 PM 98.6 °F 100.0 °F 62.6 °F 30% 29.85 in 10.0 mi NNE 8.1 mph - N/A   Clear
5:30 PM 98.6 °F 100.0 °F 62.6 °F 30% 29.85 in 10.0 mi NE 6.9 mph - N/A   Clear
5:50 PM 98.6 °F 100.0 °F 62.6 °F 30% 29.85 in 10.0 mi North 3.5 mph - N/A   Clear
6:10 PM 96.8 °F 99.0 °F 64.4 °F 34% 29.85 in 10.0 mi ENE 8.1 mph - N/A   Clear
6:30 PM 96.8 °F 98.0 °F 62.6 °F 32% 29.85 in 10.0 mi NE 4.6 mph - N/A   Clear
6:50 PM 96.8 °F 99.0 °F 64.4 °F 34% 29.85 in 10.0 mi ENE 9.2 mph - N/A   Scattered Clouds
7:10 PM 95.0 °F 97.0 °F 64.4 °F 36% 29.85 in 10.0 mi NNE 5.8 mph - N/A   Partly Cloudy
7:30 PM 93.2 °F 94.9 °F 64.4 °F 38% 29.86 in 10.0 mi East 8.1 mph - N/A   Clear
7:50 PM 91.4 °F 93.2 °F 64.4 °F 41% 29.87 in 10.0 mi East 5.8 mph - N/A   Clear
8:10 PM 91.4 °F 93.2 °F 64.4 °F 41% 29.87 in 10.0 mi East 5.8 mph - N/A   Clear
8:30 PM 89.6 °F 91.1 °F 64.4 °F 43% 29.88 in 10.0 mi ENE 6.9 mph - N/A   Clear
8:50 PM 86.0 °F 88.2 °F 66.2 °F 51% 29.89 in 10.0 mi ENE 6.9 mph - N/A   Clear
9:10 PM 86.0 °F 87.3 °F 64.4 °F 48% 29.89 in 10.0 mi East 8.1 mph - N/A   Clear
9:30 PM 86.0 °F 87.3 °F 64.4 °F 48% 29.90 in 10.0 mi East 8.1 mph - N/A   Clear
9:50 PM 84.2 °F 85.6 °F 64.4 °F 51% 29.91 in 10.0 mi East 9.2 mph - N/A   Clear
10:10 PM 84.2 °F 85.6 °F 64.4 °F 51% 29.91 in 10.0 mi ESE 6.9 mph - N/A   Clear
10:35 PM 82.4 °F 83.9 °F 64.4 °F 54% 29.92 in 10.0 mi ESE 6.9 mph - N/A   Clear
10:50 PM 82.4 °F 83.9 °F 64.4 °F 54% 29.92 in 10.0 mi ESE 6.9 mph - N/A   Clear
11:10 PM 82.4 °F 83.9 °F 64.4 °F 54% 29.92 in 10.0 mi ESE 4.6 mph - N/A   Clear
11:30 PM 82.4 °F 83.9 °F 64.4 °F 54% 29.93 in 10.0 mi Calm Calm - N/A   Partly Cloudy
11:50 PM 80.6 °F 82.3 °F 64.4 °F 58% 29.93 in 10.0 mi Calm Calm - N/A   Partly Cloudy